• Processing (Info)

  • MPEC 2016-R51 : 2016 RZ

    The following Minor Planet Electronic Circular may be linked-to from your own Web pages, but must not otherwise be redistributed electronically.

    A form allowing access to any MPEC is at the bottom of this page.


    Read MPEC 2016-R50 Read MPEC 2016-R52


    M.P.E.C. 2016-R51                                Issued 2016 Sept. 5, 20:47 UT
    
         The Minor Planet Electronic Circulars contain information on unusual
             minor planets and routine data on comets.  They are published
        on behalf of Division F of the International Astronomical Union by the
              Minor Planet Center, Smithsonian Astrophysical Observatory,
                              Cambridge, MA 02138, U.S.A.
    
                 Prepared using the Tamkin Foundation Computer Network
    
                                  MPC@CFA.HARVARD.EDU
                URL https://www.minorplanetcenter.net/    ISSN 1523-6714
    
                                        2016 RZ
    
    Observations:
         K16R00Z* C2016 09 03.30816 21 27 35.56 +18 45 21.2          21.0 VqER051G96
         K16R00Z  C2016 09 03.31278 21 27 33.92 +18 44 30.0                qER051G96
         K16R00Z  C2016 09 03.31741 21 27 32.43 +18 43 38.3          20.7 VqER051G96
         K16R00Z  C2016 09 03.32210 21 27 30.84 +18 42 45.4          20.6 VqER051G96
         K16R00Z  C2016 09 03.36310 21 27 17.05 +18 35 05.9          20.3 VqER051G96
         K16R00Z  C2016 09 03.36532 21 27 16.41 +18 34 40.2                qER051G96
         K16R00Z  C2016 09 03.36762 21 27 15.66 +18 34 14.2          20.1 VqER051G96
         K16R00Z KC2016 09 03.39019 21 27 08.56 +18 30 03.4                oER051291
         K16R00Z KC2016 09 03.39268 21 27 07.79 +18 29 34.9                oER051291
         K16R00Z KC2016 09 03.39518 21 27 06.94 +18 29 08.1                oER051291
         K16R00Z  C2016 09 03.83234 21 25 35.33 +17 09 53.7          20.9 VSER051033
         K16R00Z  C2016 09 03.83470 21 25 34.61 +17 09 28.5          21.4 VSER051033
         K16R00Z  C2016 09 03.83707 21 25 33.88 +17 09 04.5          21.6 VSER051033
         K16R00Z  C2016 09 03.84181 21 25 32.46 +17 08 15.2          21.6 VSER051033
         K16R00Z  C2016 09 03.90802 21 25 12.39 +16 56 43.8          22.1 VSER051033
         K16R00Z  C2016 09 03.91038 21 25 11.72 +16 56 19.3          22.0 VSER051033
         K16R00Z  C2016 09 03.91275 21 25 10.95 +16 55 53.2          22.1 VSER051033
         K16R00Z  C2016 09 03.91512 21 25 10.23 +16 55 28.9          21.6 VSER051033
         K16R00Z  C2016 09 03.91749 21 25 09.53 +16 55 04.0          21.7 VSER051033
         K16R00Z KC2016 09 04.20863421 24 00.69 +16 05 36.7          20.8 VuER051H21
         K16R00Z  C2016 09 04.21159 21 24 05.05 +16 05 32.7          21.3 VqER051G96
         K16R00Z KC2016 09 04.21441421 23 58.93 +16 04 37.2          20.7 VuER051H21
         K16R00Z  C2016 09 04.21692 21 24 03.36 +16 04 39.0          20.3 VqER051G96
         K16R00Z KC2016 09 04.21796521 23 57.84 +16 04 01.1          20.9 VuER051H21
         K16R00Z  C2016 09 04.22224 21 24 01.68 +16 03 44.6          20.7 VqER051G96
         K16R00Z  C2016 09 04.22757 21 24 00.03 +16 02 51.3          20.5 VqER051G96
         K16R00Z KC2016 09 04.31243 21 23 33.88 +15 48 27.4                oER051291
         K16R00Z KC2016 09 04.31510 21 23 33.08 +15 48 00.0          19.8 RoER051291
         K16R00Z  C2016 09 05.16533 21 20 45.71 +13 29 58.5          20.0 VqER051G96
         K16R00Z  C2016 09 05.17100 21 20 44.17 +13 29 06.2          20.3 VqER051G96
         K16R00Z  C2016 09 05.17668 21 20 42.59 +13 28 13.6          21.1 VqER051G96
         K16R00Z  C2016 09 05.18235 21 20 41.03 +13 27 20.8          20.5 VqER051G96
         K16R00Z KC2016 09 05.32898 21 20 00.89 +13 04 36.1                oER051291
         K16R00Z KC2016 09 05.33148 21 20 00.23 +13 04 12.9                oER051291
    
    Observer details:
    033 Karl Schwarzschild Observatory, Tautenburg.  Observers B. Stecklum,
        F. Ludwig.  Measurer B. Stecklum.  1.34-m f/3 Schmidt + CCD.
    291 LPL/Spacewatch II.  Observer T. H. Bressi.  1.8-m f/2.7 reflector + CCD.
    G96 Mt. Lemmon Survey.  Observer R. G. Matheny.  Measurers E. J. Christensen,
        D. C. Fuls, A. R. Gibbs, A. D. Grauer, J. A. Johnson, R. A. Kowalski,
        S. M. Larson, G. J. Leonard, R. G. Matheny, R. L. Seaman, F. C. Shelly.
        1.5-m reflector + 10K CCD.
    H21 Astronomical Research Observatory, Westfield.  Observer R. Holmes.
        Measurers S. Foglia, L. Buzzi, T. Linder, R. Holmes.  0.76-m f/3.0
        astrograph + CCD.
    
    Orbital elements:
    2016 RZ                                                  Earth MOID = 0.0239 AU
    Epoch 2016 July 31.0 TT = JDT 2457600.5                 MPC
    M 100.14590              (2000.0)            P               Q
    n   1.15402910     Peri.  356.33855     -0.98669660     +0.16238941
    a   0.9001707      Node   193.01472     -0.14827379     -0.91835726
    e   0.1861354      Incl.    1.96283     -0.06666859     -0.36090112
    P   0.85           H   26.7           G   0.15           U   7
    Residuals in seconds of arc
    160903 G96  0.3-  0.8-    160903 033  0.1-  0.1-    160904 G96  0.4-  0.5-
    160903 G96  1.0-  0.3-    160903 033  0.0   0.0     160904 G96  0.1-  0.3+
    160903 G96  0.3+  0.1-    160903 033  0.0   0.3+    160904 291  0.1+  0.1+
    160903 G96  0.5+  0.5-    160903 033  0.7+  0.6+    160904 291  0.2+  0.1+
    160903 G96  1.2-  0.6+    160903 033  0.1-  0.7-    160905 G96  0.1-  0.1+
    160903 G96  0.0   0.1-    160903 033  0.1-  0.2-    160905 G96  0.0   0.3+
    160903 G96  0.1-  0.2-    160903 033  0.2+  0.2-    160905 G96  0.3-  0.2+
    160903 291  0.1+  0.8+    160904 H21  0.2+  0.2+    160905 G96  0.4-  0.1-
    160903 291  0.2+  0.3+    160904 G96  0.1+  0.3-    160905 291  0.0   0.2-
    160903 291 (0.7-  1.7+)   160904 H21  0.3+  0.0     160905 291  0.0   0.1+
    160903 033  0.4+  0.2-    160904 G96  0.3-  0.0
    160903 033  0.2+  0.8-    160904 H21  0.2+  0.3+
    
    Ephemeris:
    2016 RZ                  a,e,i = 0.90, 0.19, 2                   q = 0.7326
    Date    TT    R. A. (2000) Decl.     Delta      r     Elong.  Phase     V
    2016 08 06    07 10 31.6 +53 49 49   0.05466 0.9752    43.2   134.6    26.5
    ...
    2016 08 21    01 17 06.2 +69 21 17   0.02954 1.0129    91.7    86.6    22.1
    ...
    2016 08 29    22 02 55.5 +38 41 43   0.02896 1.0293   131.5    47.3    20.9
    ...
    2016 09 04    21 24 51.0 +16 43 06   0.03679 1.0398   147.8    31.2    20.9
    2016 09 05    21 21 13.1 +13 57 23   0.03859 1.0414   148.6    30.3    21.0
    2016 09 06    21 18 03.7 +11 25 52   0.04048 1.0429   149.1    29.8    21.1
    ...
    2016 09 12    21 06 10.8 +00 15 01   0.05349 1.0512   146.0    32.4    21.8
    ...
    2016 09 20    21 01 13.9 -08 01 21   0.07351 1.0595   137.4    39.9    22.7
    ...
    2016 10 05    21 07 39.7 -14 48 45   0.1150  1.0670   123.0    51.8    24.1
    
    A. U. Tomatic                (C) Copyright 2016 MPC           M.P.E.C. 2016-R51
    

    Read MPEC 2016-R50 Read MPEC 2016-R52


    MPEC number:

    Enter an MPEC number in one of the following forms:

    • 1997-B01 (the full form)
    • J97B01 (the packed version of the full form)
    • B01 (the abbreviated form)